Weather in Gwangju

South Korea     35°09′15″N   126°51′12″E
temp.,
°C
wind,
m/s
gust,
m/s
humid.,
%
clouds,
%
prec.,
mm/h
press.,
hPa
HPBL,
m
18 may, tue
tue1800:00+13w129583 0.0 1011103
03:00+13wnw0192100 0.0 101028
06:00+13wnw1194100 0.0 101255
09:00+17wnw0177100 0.0 1012497
12:00+22wnw34532 0.0 10121477
15:00+22nw55520 0.0 10111225
18:00+20nw3562100 0.0 1011579
21:00+15nw118098 0.0 101341
19 may, wed
wed1900:00+14nnw1178100 0.0 101318
03:00+13nne0074100 0.0 101313
06:00+13ene117225 0.0 101415
09:00+21ne114584 0.0 1014352
12:00+26n3429100 0.0 10131298
15:00+27n2328100 0.0 10111926
18:00+23w1155100 0.0 1011133
21:00+18ese1165100 0.0 101328
20 may, thu
thu2000:00+17sw0065100 0.0 101323
03:00+16ene1169100 0.0 101130
06:00+16e1174100 0.0 101027
09:00+18se3870100 0.1 1010402
12:00+15e61591100 2.6 1008734
15:00+16nne2889100 4.6 1005644
18:00+16nne2395100 1.1 1003144
21:00+15ne1295100 1.1 100361
21 may, fri
fri2100:00+16wnw1194100 0.4 100322
03:00+15w1196100 0.4 100331
06:00+15wnw1395100 0.0 1004238
09:00+17wnw3481100 0.0 1005682
12:00+18wnw4469100 0.1 10051009
15:00+18wnw566968 0.1 10051046
18:00+17wnw457549 0.1 1006799
21:00+13w239422 0.1 1008151
22 may, sat
sat2200:00+13w129177 0.0 1008194
03:00+13w129477 0.1 1008108
06:00+13wsw1292100 0.0 1009142
09:00+17nw357590 0.1 1010849
12:00+19nnw456365 0.1 10091210
15:00+21nnw555415 0.1 10091288
18:00+19n34620 0.0 1009806
21:00+14nnw228596 0.0 101148